QPF
0.00 0.00 0.00 0.00 0.00 0.00 0.00 0.00 0.00 0.00 0.00 0.00 0.00 0.00 0.00 0.00 0.00 0.00 0.00 0.00 0.00 0.00 0.00 0.00 0.00 0.00 0.00 0.00 0.00 0.00 0.00 0.00 0.00 0.00 0.00 0.00 0.00 0.00 0.00 0.00 0.00 0.00 0.00 0.00
0.00 0.00 0.00 0.00 0.00 0.00 0.00 0.00 0.00 0.00 0.00 0.00 0.00 0.00 0.00 0.00 0.00 0.00 0.00 0.00 0.00 0.00 0.00 0.00 0.00 0.00 0.00 0.00 0.00 0.00 0.00 0.00 0.00 0.00 0.00 0.00 0.00 0.00 0.00 0.00 0.00 0.00 0.00 0.00
0.00 0.00 0.00 0.00 0.00 0.00 0.00 0.00 0.00 0.00 0.00 0.00 0.00 0.00 0.00 0.00 0.00 0.00 0.00 0.00 0.00 0.00 0.00 0.00 0.00 0.00 0.00 0.00 0.00 0.00 0.00 0.00 0.00 0.00 0.00 0.00 0.00 0.00 0.00 0.00 0.00 0.00 0.00 0.00
0.00 0.00 0.00 0.00 0.00 0.00 0.00 0.00 0.00 0.00 0.00 0.00 0.00 0.00 0.00 0.00 0.00 0.00 0.00 0.00 0.00 0.00 0.00 0.00 0.00 0.00 0.00 0.00 0.00 0.00 0.00 0.00 0.00 0.00 0.00 0.00 0.00 0.00 0.00 0.00 0.00 0.00 0.00 0.00
0.00 0.00 0.00 0.00 0.00 0.00 0.00 0.00 0.00 0.00 0.00 0.00 0.00 0.00 0.00 0.00 0.00 0.00 0.00 0.00 0.00 0.00 0.00 0.00 0.00 0.00 0.00 0.00 0.00 0.00 0.00 0.00 0.00 0.00 0.00 0.00 0.00 0.00 0.00 0.00 0.00 0.00 0.00 0.00
0.00 0.00 0.00 0.00 0.00 0.00 0.00 0.00 0.00 0.00 0.00 0.00 0.00 0.00 0.00 0.00 0.00 0.00 0.00 0.00 0.00 0.00 0.00 0.00 0.00 0.00 0.00 0.00 0.00 0.00 0.00 0.00 0.00 0.00 0.00 0.00 0.01 0.00 0.00 0.00 0.00 0.00 0.00 0.00
0.00 0.00 0.00 0.00 0.00 0.00 0.00 0.00 0.00 0.00 0.00 0.00 0.00 0.00 0.00 0.00 0.00 0.00 0.00 0.00 0.00 0.00 0.00 0.00 0.00 0.00 0.00 0.00 0.00 0.00 0.00 0.00 0.00 0.00 0.00 0.00 0.00 0.00 0.00 0.00 0.00 0.00 0.00 0.00
0.00 0.00 0.00 0.00 0.00 0.00 0.00 0.00 0.00 0.00 0.00 0.00 0.00 0.00 0.00 0.00 0.00 0.00 0.00 0.00 0.00 0.00 0.00 0.00 0.00 0.00 0.00 0.00 0.00 0.00 0.00 0.00 0.00 0.00 0.00 0.00 0.00 0.00 0.00 0.00 0.00 0.00 0.00 0.00
0.00 0.00 0.00 0.00 0.00 0.00 0.00 0.00 0.00 0.00 0.00 0.00 0.00 0.00 0.00 0.00 0.00 0.00 0.00 0.00 0.00 0.00 0.00 0.00 0.00 0.00 0.00 0.00 0.00 0.00 0.00 0.00 0.00 0.00 0.00 0.00 0.00 0.00 0.00 0.00 0.00 0.00 0.00 0.00
0.00 0.00 0.00 0.00 0.00 0.00 0.00 0.00 0.00 0.00 0.00 0.00 0.00 0.00 0.00 0.00 0.00 0.00 0.00 0.00 0.00 0.00 0.00 0.00 0.00 0.00 0.00 0.00 0.00 0.00 0.00 0.00 0.00 0.00 0.00 0.00 0.00 0.00 0.00 0.00 0.00 0.00 0.00 0.00
0.00 0.00 0.00 0.00 0.00 0.00 0.00 0.00 0.00 0.00 0.00 0.00 0.00 0.00 0.00 0.00 0.00 0.00 0.00 0.00 0.00 0.00 0.00 0.00 0.00 0.00 0.00 0.00 0.00 0.00 0.00 0.00 0.00 0.00 0.00 0.00 0.00 0.00 0.00 0.00 0.00 0.00 0.00 0.00
0.00 0.00 0.00 0.00 0.00 0.00 0.00 0.00 0.00 0.00 0.00 0.01 0.01 0.00 0.00 0.00 0.00 0.00 0.00 0.00 0.00 0.00 0.00 0.00 0.00 0.00 0.00 0.00 0.00 0.00 0.00 0.00 0.00 0.00 0.00 0.00 0.00 0.00 0.00 0.00 0.00 0.00 0.00 0.00
0.00 0.00 0.00 0.00 0.00 0.00 0.00 0.00 0.00 0.00 0.00 0.00 0.01 0.00 0.00 0.00 0.00 0.00 0.00 0.00 0.00 0.00 0.00 0.00 0.00 0.00 0.00 0.00 0.00 0.00 0.00 0.00 0.00 0.00 0.00 0.00 0.00 0.00 0.00 0.00 0.00 0.00 0.00 0.00
0.00 0.00 0.00 0.00 0.00 0.00 0.00 0.00 0.00 0.00 0.00 0.00 0.00 0.00 0.00 0.00 0.00 0.00 0.00 0.00 0.00 0.00 0.00 0.00 0.00 0.00 0.00 0.00 0.00 0.00 0.00 0.00 0.00 0.00 0.00 0.00 0.00 0.00 0.00 0.00 0.00 0.00 0.00 0.00
0.00 0.00 0.00 0.00 0.00 0.00 0.00 0.00 0.00 0.00 0.00 0.00 0.00 0.00 0.00 0.00 0.00 0.00 0.00 0.00 0.00 0.00 0.00 0.00 0.00 0.00 0.00 0.00 0.00 0.00 0.00 0.00 0.00 0.00 0.00 0.00 0.00 0.00 0.00 0.00 0.00 0.00 0.00 0.00
0.00 0.00 0.00 0.00 0.00 0.00 0.00 0.00 0.00 0.00 0.00 0.00 0.00 0.00 0.00 0.00 0.00 0.00 0.00 0.00 0.00 0.00 0.00 0.00 0.00 0.00 0.00 0.00 0.00 0.00 0.00 0.00 0.00 0.00 0.00 0.00 0.00 0.00 0.00 0.00 0.00 0.00 0.00 0.00
0.00 0.00 0.00 0.00 0.00 0.00 0.00 0.00 0.00 0.00 0.00 0.00 0.00 0.00 0.00 0.00 0.00 0.00 0.00 0.00 0.00 0.00 0.00 0.00 0.00 0.00 0.00 0.00 0.00 0.00 0.00 0.00 0.00 0.00 0.00 0.00 0.00 0.00 0.00 0.00 0.00 0.00 0.00 0.00
0.00 0.00 0.00 0.00 0.00 0.00 0.00 0.00 0.00 0.00 0.00 0.00 0.00 0.00 0.00 0.00 0.00 0.00 0.00 0.00 0.00 0.00 0.00 0.00 0.00 0.00 0.00 0.00 0.00 0.00 0.00 0.00 0.00 0.00 0.00 0.00 0.00 0.00 0.00 0.00 0.00 0.00 0.00 0.00
0.00 0.00 0.00 0.00 0.00 0.00 0.00 0.00 0.00 0.00 0.00 0.00 0.00 0.00 0.00 0.00 0.00 0.00 0.00 0.00 0.00 0.00 0.00 0.00 0.00 0.00 0.00 0.00 0.00 0.00 0.00 0.00 0.00 0.00 0.00 0.01 0.00 0.00 0.00 0.00 0.00 0.00 0.00 0.00
0.00 0.00 0.00 0.00 0.00 0.00 0.00 0.00 0.00 0.00 0.00 0.00 0.00 0.00 0.00 0.00 0.00 0.00 0.00 0.00 0.00 0.00 0.00 0.00 0.00 0.00 0.00 0.00 0.00 0.00 0.00 0.00 0.00 0.00 0.01 0.01 0.00 0.00 0.00 0.00 0.00 0.00 0.00 0.00
0.00 0.00 0.00 0.00 0.00 0.00 0.00 0.00 0.00 0.01 0.03 0.00 0.00 0.00 0.00 0.00 0.00 0.00 0.00 0.00 0.00 0.00 0.00 0.00 0.00 0.00 0.00 0.00 0.00 0.00 0.00 0.00 0.00 0.00 0.00 0.00 0.00 0.00 0.00 0.00 0.00 0.00 0.00 0.00
0.01 0.01 0.00 0.00 0.01 0.02 0.00 0.00 0.01 0.01 0.00 0.00 0.00 0.00 0.00 0.00 0.00 0.00 0.00 0.00 0.00 0.00 0.00 0.00 0.00 0.00 0.00 0.00 0.00 0.00 0.00 0.00 0.00 0.00 0.00 0.00 0.00 0.00 0.00 0.00 0.00 0.00 0.00 0.00
0.00 0.00 0.00 0.01 0.03 0.02 0.00 0.01 0.00 0.00 0.00 0.00 0.00 0.00 0.00 0.00 0.00 0.00 0.00 0.00 0.00 0.00 0.00 0.00 0.00 0.00 0.00 0.00 0.00 0.00 0.00 0.00 0.00 0.00 0.00 0.00 0.00 0.00 0.00 0.00 0.00 0.00 0.00 0.00
0.00 0.00 0.00 0.00 0.00 0.00 0.00 0.00 0.00 0.00 0.00 0.00 0.00 0.00 0.00 0.00 0.00 0.00 0.00 0.00 0.00 0.00 0.00 0.00 0.00 0.00 0.00 0.00 0.00 0.00 0.01 0.01 0.00 0.00 0.00 0.00 0.00 0.00 0.00 0.00 0.00 0.00 0.00 0.00
0.00 0.00 0.00 0.00 0.00 0.00 0.00 0.00 0.00 0.00 0.00 0.00 0.00 0.00 0.00 0.00 0.00 0.00 0.00 0.00 0.00 0.00 0.00 0.00 0.00 0.00 0.00 0.00 0.00 0.00 0.01 0.00 0.00 0.00 0.00 0.00 0.00 0.00 0.00 0.00 0.00 0.00 0.00 0.00
0.00 0.00 0.00 0.00 0.00 0.00 0.00 0.00 0.00 0.00 0.00 0.00 0.00 0.00 0.00 0.00 0.00 0.00 0.00 0.00 0.00 0.00 0.00 0.00 0.00 0.00 0.00 0.00 0.00 0.00 0.00 0.00 0.00 0.00 0.00 0.00 0.00 0.00 0.00 0.00 0.00 0.00 0.00 0.00
MSLP
1004.47 1004.26 1003.50 1003.69 1004.10 1004.10 1003.94 1003.32 1002.92 1002.64 1003.10 1004.03 1004.48 1004.26 1003.92 1004.27 1005.04 1005.77 1006.45 1007.21 1007.97 1008.57 1009.11 1009.50 1009.81 1010.08 1010.25 1010.51 1010.66 1010.73 1010.75 1010.74 1010.74 1010.56 1010.28 1009.66 1009.25 1008.67 1007.94 1007.28 1006.75 1006.52 1006.36 1006.12
1004.66 1003.88 1004.36 1004.66 1004.70 1004.66 1004.16 1003.77 1003.36 1003.08 1003.54 1004.23 1004.45 1004.26 1003.93 1003.81 1004.46 1005.57 1006.27 1007.19 1007.98 1008.46 1008.86 1009.19 1009.32 1009.46 1009.72 1010.02 1010.17 1010.30 1010.31 1010.36 1010.45 1010.46 1010.32 1010.01 1009.46 1008.88 1008.28 1007.65 1007.04 1006.31 1006.01 1005.78
1004.20 1004.45 1004.94 1005.00 1004.83 1004.78 1004.27 1004.00 1003.88 1004.08 1004.21 1004.39 1004.07 1003.76 1003.38 1003.14 1004.72 1005.98 1007.32 1008.10 1008.43 1008.40 1008.50 1008.62 1008.80 1009.05 1009.40 1009.62 1009.77 1009.82 1009.94 1010.07 1010.13 1010.13 1009.96 1009.76 1009.65 1009.26 1008.62 1007.67 1007.07 1006.54 1006.12 1005.66
1004.46 1004.98 1005.13 1005.02 1005.00 1005.36 1004.69 1004.62 1004.89 1005.10 1005.05 1004.31 1003.91 1003.68 1003.39 1003.70 1005.22 1006.66 1008.15 1008.06 1008.32 1008.14 1008.15 1008.32 1008.51 1008.74 1009.06 1009.26 1009.38 1009.53 1009.77 1009.86 1009.85 1009.90 1009.82 1009.81 1009.72 1009.36 1008.95 1008.59 1007.72 1007.33 1006.70 1006.11
1004.82 1004.90 1005.30 1005.19 1005.08 1005.80 1005.37 1005.66 1005.83 1005.66 1005.42 1005.04 1004.64 1004.19 1003.72 1004.55 1006.70 1008.50 1009.76 1008.83 1008.23 1007.95 1007.87 1008.00 1008.22 1008.50 1008.69 1008.93 1009.06 1009.20 1009.45 1009.66 1009.79 1009.75 1009.59 1009.46 1009.25 1008.99 1008.61 1008.34 1007.98 1007.60 1006.83 1006.32
1005.18 1005.66 1005.72 1005.47 1005.83 1006.05 1006.12 1006.22 1005.74 1005.36 1005.25 1005.12 1004.67 1004.48 1004.60 1005.45 1006.96 1007.89 1008.22 1008.34 1007.84 1007.63 1007.60 1007.68 1007.95 1008.11 1008.32 1008.58 1008.60 1008.75 1009.05 1009.27 1009.38 1009.42 1009.41 1009.27 1009.01 1008.89 1008.58 1008.21 1007.88 1007.50 1006.98 1006.30
1005.13 1005.32 1005.60 1006.33 1005.84 1005.58 1005.99 1005.90 1005.67 1005.14 1004.90 1004.75 1005.28 1005.12 1005.48 1006.20 1006.89 1007.30 1007.83 1007.78 1007.77 1007.58 1007.52 1007.71 1007.81 1007.92 1008.15 1008.17 1008.26 1008.45 1008.68 1008.86 1009.14 1009.24 1009.22 1009.05 1008.96 1008.82 1008.56 1008.18 1007.70 1007.23 1006.77 1006.18
1004.39 1004.77 1005.15 1005.80 1005.92 1005.75 1005.80 1006.50 1006.94 1007.44 1006.48 1005.82 1005.63 1005.43 1006.52 1006.70 1007.45 1008.00 1007.85 1008.02 1007.85 1007.68 1007.63 1007.65 1007.73 1008.02 1008.02 1007.92 1007.96 1008.27 1008.48 1008.79 1008.92 1008.86 1008.79 1008.64 1008.52 1008.38 1008.30 1008.18 1007.96 1007.39 1006.79 1006.16
1005.06 1004.88 1005.55 1005.95 1006.24 1006.27 1006.20 1006.36 1007.26 1007.85 1008.13 1007.73 1006.33 1006.86 1006.86 1007.70 1008.36 1008.58 1008.47 1008.10 1008.07 1007.74 1007.62 1007.54 1007.65 1007.75 1007.77 1007.77 1007.92 1008.14 1008.52 1008.70 1008.75 1008.70 1008.68 1008.77 1008.75 1008.65 1008.33 1008.07 1007.78 1007.35 1006.73 1006.06
1006.25 1006.08 1005.68 1006.10 1006.61 1006.46 1006.56 1006.92 1007.39 1008.16 1009.00 1008.37 1007.20 1007.14 1007.64 1008.02 1008.73 1008.91 1008.49 1008.03 1007.73 1007.44 1007.34 1007.47 1007.61 1007.55 1007.60 1007.70 1007.89 1008.14 1008.43 1008.61 1008.78 1008.90 1009.05 1008.93 1008.78 1008.52 1008.18 1007.68 1007.21 1006.74 1006.13 1005.72
1006.95 1006.97 1005.93 1006.13 1006.01 1005.45 1006.20 1006.44 1007.24 1007.98 1008.65 1009.18 1008.94 1008.00 1007.87 1008.24 1008.53 1008.70 1008.26 1008.13 1007.68 1007.25 1007.24 1007.42 1007.34 1007.34 1007.53 1007.68 1007.94 1008.31 1008.53 1008.86 1009.05 1009.24 1009.28 1009.10 1008.66 1008.26 1007.87 1007.38 1006.79 1006.16 1005.52 1004.96
1007.78 1007.66 1006.72 1005.80 1005.01 1005.51 1005.97 1006.30 1006.77 1007.66 1008.70 1009.32 1009.36 1008.65 1008.01 1007.86 1008.33 1008.54 1007.98 1007.76 1007.29 1007.26 1007.30 1007.22 1007.36 1007.60 1007.80 1007.92 1008.18 1008.45 1008.78 1009.16 1009.49 1009.66 1009.54 1009.12 1008.54 1007.94 1007.32 1006.66 1006.04 1005.44 1004.76 1004.14
1008.15 1008.22 1007.70 1006.54 1005.90 1006.00 1006.52 1006.50 1006.88 1007.60 1008.34 1008.82 1008.93 1008.49 1007.76 1007.72 1007.80 1008.30 1007.66 1007.54 1007.42 1007.28 1007.33 1007.62 1007.82 1008.02 1008.16 1008.34 1008.55 1008.74 1009.24 1009.68 1009.92 1009.83 1009.47 1008.94 1008.27 1007.58 1006.72 1005.88 1005.10 1004.38 1003.70 1002.98
1009.30 1009.12 1008.58 1007.74 1007.03 1006.41 1006.30 1006.29 1006.65 1007.16 1007.67 1007.90 1007.82 1007.43 1006.91 1007.71 1008.12 1007.94 1007.68 1007.69 1007.59 1007.46 1007.66 1007.92 1008.16 1008.37 1008.60 1008.88 1009.24 1009.58 1009.93 1010.23 1010.31 1009.96 1009.40 1008.70 1007.97 1007.16 1006.24 1005.28 1004.37 1003.42 1002.64 1001.84
1009.91 1009.71 1009.18 1008.35 1007.41 1006.80 1006.35 1006.12 1006.21 1006.39 1006.67 1006.92 1006.92 1006.70 1007.32 1007.86 1008.04 1007.71 1007.83 1007.89 1007.79 1007.93 1008.05 1008.21 1008.44 1008.70 1009.13 1009.64 1009.94 1010.31 1010.68 1010.79 1010.55 1010.03 1009.32 1008.56 1007.69 1006.77 1005.70 1004.62 1003.51 1002.58 1001.74 1000.51
1009.58 1009.93 1009.74 1008.87 1007.98 1007.09 1006.24 1005.90 1005.88 1005.89 1005.90 1005.90 1006.02 1006.13 1007.67 1007.94 1008.09 1007.71 1007.87 1008.11 1008.39 1008.59 1008.50 1008.69 1008.93 1009.30 1009.90 1010.49 1010.99 1011.20 1011.38 1011.27 1010.80 1010.04 1009.31 1008.44 1007.44 1006.40 1005.38 1004.26 1003.24 1002.39 1001.38 1000.02
1009.35 1009.72 1009.86 1009.08 1008.26 1007.28 1006.09 1005.18 1005.02 1004.99 1005.08 1005.08 1005.71 1006.79 1006.50 1007.17 1007.80 1008.12 1008.36 1008.69 1008.92 1008.89 1008.94 1009.16 1009.55 1010.06 1010.64 1011.38 1011.84 1012.11 1012.05 1011.60 1010.80 1010.16 1009.25 1008.29 1007.31 1006.34 1005.34 1004.27 1003.48 1002.60 1001.78 1000.83
1009.41 1009.84 1010.12 1009.60 1009.06 1007.56 1006.16 1005.15 1004.79 1005.12 1005.44 1005.57 1005.80 1006.29 1006.85 1007.53 1008.18 1008.27 1008.96 1009.08 1009.03 1009.09 1009.36 1009.64 1010.11 1010.66 1011.38 1012.08 1012.59 1012.75 1012.46 1011.74 1011.04 1010.20 1009.44 1008.41 1007.42 1006.56 1005.59 1004.90 1004.17 1003.39 1002.60 1001.96
1009.09 1009.73 1009.88 1009.60 1008.78 1007.55 1006.48 1005.48 1005.00 1006.12 1006.82 1006.66 1006.69 1007.03 1007.64 1007.92 1008.22 1008.33 1008.82 1008.99 1008.99 1009.26 1009.54 1010.18 1010.72 1011.30 1012.04 1012.88 1013.48 1013.40 1012.78 1012.04 1011.27 1010.61 1009.76 1008.70 1007.81 1006.96 1006.33 1005.57 1004.99 1004.46 1003.84 1003.17
1008.38 1009.17 1010.02 1009.94 1009.03 1007.77 1006.69 1006.79 1006.80 1006.72 1007.39 1008.24 1007.95 1008.13 1008.55 1008.74 1008.69 1008.77 1009.12 1009.10 1009.29 1009.53 1009.88 1010.62 1011.20 1011.92 1013.12 1013.93 1014.17 1013.76 1013.20 1012.37 1011.69 1011.08 1010.19 1009.26 1008.34 1007.67 1007.11 1006.54 1005.92 1005.55 1005.17 1004.49
1008.44 1008.80 1009.08 1009.34 1009.19 1008.57 1007.16 1007.38 1007.83 1008.62 1009.29 1008.99 1008.97 1009.10 1009.36 1009.54 1009.78 1009.56 1009.28 1009.30 1009.50 1009.70 1010.44 1011.18 1011.81 1012.86 1014.14 1014.66 1014.69 1014.15 1013.46 1012.82 1012.40 1011.68 1010.76 1009.82 1009.11 1008.44 1008.02 1007.56 1006.93 1006.77 1006.52 1005.94
1007.24 1008.69 1008.61 1008.72 1008.80 1009.10 1009.32 1008.74 1008.92 1009.64 1009.53 1009.25 1009.38 1009.69 1009.75 1009.72 1009.66 1009.41 1009.39 1009.59 1009.71 1010.23 1011.29 1012.04 1012.83 1013.86 1014.76 1015.42 1015.11 1014.51 1013.77 1013.31 1012.91 1012.12 1011.38 1010.78 1010.00 1009.53 1008.99 1008.60 1008.16 1008.07 1007.89 1007.60
1006.88 1007.28 1007.70 1009.14 1009.29 1010.02 1009.50 1010.34 1010.58 1009.74 1009.66 1009.73 1009.91 1009.97 1010.06 1009.93 1009.60 1009.40 1009.79 1009.78 1010.12 1011.22 1012.18 1013.04 1014.02 1014.84 1015.70 1015.93 1015.54 1014.90 1014.28 1013.69 1013.24 1012.60 1012.03 1011.75 1011.32 1010.74 1010.37 1009.94 1009.68 1009.47 1009.27 1009.19
1006.89 1007.30 1008.27 1008.06 1008.32 1008.96 1009.52 1009.45 1009.27 1009.25 1009.36 1010.06 1010.22 1010.31 1010.22 1009.97 1009.78 1009.96 1010.12 1010.13 1010.64 1012.08 1013.03 1013.98 1014.97 1015.79 1016.52 1016.47 1016.01 1015.45 1014.74 1014.24 1013.69 1013.38 1013.17 1012.90 1012.49 1012.24 1011.62 1011.50 1011.34 1011.02 1010.98 1010.89
1007.06 1007.87 1007.94 1008.03 1008.22 1008.17 1008.49 1009.00 1009.28 1009.55 1009.84 1010.09 1010.31 1010.34 1010.21 1009.88 1010.08 1010.38 1010.50 1010.72 1011.74 1013.28 1013.94 1014.91 1015.96 1016.88 1017.25 1017.10 1016.49 1015.86 1015.46 1015.00 1014.39 1014.15 1013.99 1013.86 1013.74 1013.48 1013.21 1013.06 1012.94 1012.73 1012.94 1012.67
1006.79 1006.96 1007.36 1007.65 1008.09 1008.78 1008.88 1009.13 1009.64 1010.13 1010.39 1010.43 1010.36 1010.43 1010.53 1010.41 1010.70 1010.90 1011.18 1011.86 1012.98 1014.13 1014.88 1015.84 1016.94 1017.80 1017.83 1017.67 1017.07 1016.50 1016.11 1015.65 1015.23 1014.98 1014.88 1014.73 1014.72 1014.69 1014.55 1014.42 1014.44 1014.30 1014.14 1013.87
Thickness
5771 5754 5752 5757 5758 5757 5753 5752 5750 5763 5765 5743 5733 5737 5749 5748 5734 5730 5723 5717 5709 5704 5705 5704 5701 5699 5697 5693 5690 5689 5688 5687 5685 5685 5686 5691 5692 5699 5707 5715 5720 5722 5722 5725
5753 5747 5758 5759 5756 5749 5750 5743 5744 5758 5757 5742 5732 5729 5744 5751 5737 5730 5724 5712 5702 5698 5696 5695 5695 5694 5691 5688 5685 5683 5682 5680 5677 5675 5675 5677 5681 5686 5692 5698 5702 5708 5712 5716
5745 5750 5757 5749 5746 5739 5744 5738 5738 5732 5740 5740 5732 5724 5736 5753 5736 5726 5712 5705 5698 5694 5693 5693 5690 5688 5685 5681 5679 5677 5676 5673 5670 5668 5668 5668 5667 5670 5674 5682 5689 5693 5697 5703
5749 5753 5744 5742 5736 5735 5724 5745 5735 5725 5717 5705 5739 5698 5732 5736 5721 5708 5692 5694 5692 5691 5693 5690 5686 5682 5678 5677 5677 5674 5669 5665 5663 5661 5658 5653 5651 5652 5657 5661 5670 5673 5680 5686
5736 5740 5733 5730 5735 5733 5723 5734 5723 5721 5712 5712 5715 5705 5727 5726 5691 5672 5662 5685 5689 5689 5689 5686 5682 5679 5676 5674 5670 5668 5664 5659 5655 5652 5649 5646 5645 5646 5649 5651 5653 5657 5666 5670
5738 5746 5737 5735 5735 5731 5732 5720 5724 5725 5716 5688 5712 5714 5708 5702 5690 5684 5689 5688 5690 5688 5688 5684 5681 5678 5672 5670 5667 5664 5657 5652 5649 5645 5641 5637 5635 5634 5635 5639 5641 5646 5651 5658
5730 5729 5737 5730 5720 5733 5724 5712 5689 5692 5698 5692 5712 5703 5698 5703 5700 5697 5689 5688 5687 5685 5682 5677 5672 5669 5664 5662 5660 5657 5651 5646 5641 5637 5633 5630 5625 5623 5623 5627 5631 5635 5640 5647
5718 5699 5726 5731 5719 5712 5715 5703 5670 5636 5671 5692 5717 5691 5680 5699 5694 5690 5689 5684 5682 5678 5675 5671 5667 5662 5659 5657 5655 5649 5643 5636 5632 5629 5626 5624 5620 5617 5614 5615 5616 5623 5629 5635
5709 5709 5726 5724 5722 5719 5705 5695 5704 5676 5681 5669 5700 5689 5696 5686 5677 5675 5673 5673 5669 5668 5667 5666 5663 5658 5654 5651 5646 5640 5633 5628 5624 5620 5616 5611 5608 5605 5604 5603 5605 5609 5616 5624
5710 5687 5718 5716 5715 5716 5705 5709 5678 5674 5632 5641 5679 5677 5658 5665 5661 5663 5665 5666 5667 5667 5665 5660 5656 5653 5650 5645 5639 5632 5625 5617 5612 5607 5601 5598 5596 5595 5594 5595 5598 5602 5608 5613
5706 5695 5701 5710 5699 5702 5697 5691 5689 5683 5671 5638 5630 5657 5679 5665 5662 5659 5663 5662 5663 5664 5659 5654 5652 5650 5644 5638 5632 5623 5615 5606 5598 5591 5586 5583 5583 5584 5584 5585 5589 5593 5598 5604
5693 5687 5679 5697 5720 5718 5706 5694 5692 5663 5653 5648 5641 5644 5684 5677 5666 5660 5660 5660 5664 5660 5655 5652 5647 5641 5635 5629 5622 5613 5604 5594 5585 5576 5571 5569 5569 5570 5573 5577 5581 5584 5589 5595
5688 5674 5661 5678 5698 5698 5682 5690 5689 5681 5671 5648 5629 5638 5680 5675 5665 5659 5660 5657 5657 5654 5650 5643 5638 5632 5626 5620 5612 5603 5591 5579 5570 5563 5558 5556 5557 5558 5561 5567 5572 5577 5583 5590
5674 5664 5661 5652 5665 5685 5673 5680 5683 5674 5652 5650 5648 5655 5672 5658 5654 5654 5653 5652 5650 5648 5642 5635 5630 5624 5618 5610 5599 5587 5577 5566 5555 5549 5546 5543 5543 5546 5551 5557 5563 5571 5578 5587
5659 5646 5658 5669 5680 5680 5677 5677 5677 5668 5669 5650 5660 5664 5656 5655 5649 5652 5649 5646 5642 5638 5634 5629 5623 5617 5608 5597 5588 5576 5563 5551 5542 5536 5534 5534 5537 5539 5544 5552 5561 5569 5576 5587
5659 5638 5647 5649 5668 5673 5669 5677 5675 5674 5674 5671 5670 5666 5651 5655 5649 5648 5644 5637 5630 5626 5625 5621 5616 5606 5596 5584 5571 5560 5546 5535 5527 5524 5521 5524 5530 5533 5539 5546 5554 5561 5569 5581
5648 5642 5635 5632 5656 5659 5652 5673 5675 5676 5681 5678 5654 5656 5664 5652 5644 5639 5627 5626 5620 5619 5616 5612 5604 5594 5585 5570 5556 5540 5528 5519 5514 5508 5511 5518 5523 5528 5533 5539 5545 5552 5559 5567
5636 5634 5631 5624 5634 5616 5662 5686 5684 5672 5673 5675 5667 5663 5658 5645 5639 5639 5623 5618 5614 5612 5608 5603 5595 5587 5574 5559 5542 5527 5516 5506 5499 5500 5504 5509 5514 5521 5527 5531 5537 5543 5550 5555
5645 5632 5621 5617 5622 5641 5656 5669 5668 5648 5640 5654 5653 5652 5644 5640 5637 5632 5624 5618 5612 5607 5603 5596 5585 5576 5564 5545 5527 5514 5506 5500 5497 5494 5498 5504 5510 5516 5522 5529 5532 5536 5541 5545
5643 5637 5617 5614 5609 5605 5647 5653 5660 5658 5628 5636 5640 5636 5629 5627 5610 5614 5618 5616 5609 5604 5598 5586 5577 5567 5547 5531 5515 5505 5497 5494 5492 5490 5493 5499 5507 5512 5518 5523 5527 5530 5532 5537
5616 5619 5612 5611 5607 5623 5655 5645 5647 5609 5608 5626 5626 5623 5618 5608 5607 5610 5612 5606 5604 5598 5589 5578 5568 5554 5533 5519 5505 5499 5491 5486 5484 5486 5491 5497 5503 5508 5514 5517 5520 5521 5524 5529
5621 5600 5611 5619 5613 5604 5624 5628 5610 5611 5620 5621 5618 5616 5611 5609 5609 5608 5606 5598 5595 5589 5577 5568 5557 5542 5524 5507 5499 5493 5488 5483 5481 5485 5489 5493 5499 5503 5508 5511 5514 5516 5519 5522
5617 5627 5617 5611 5605 5611 5612 5603 5608 5614 5611 5610 5610 5610 5606 5603 5603 5603 5597 5593 5588 5578 5566 5556 5543 5529 5512 5500 5493 5487 5483 5482 5482 5484 5487 5488 5489 5495 5499 5503 5506 5509 5512 5514
5621 5626 5607 5616 5619 5613 5607 5611 5614 5614 5612 5607 5603 5601 5601 5597 5598 5594 5590 5588 5583 5567 5556 5546 5533 5517 5501 5494 5488 5482 5479 5477 5481 5482 5481 5481 5484 5485 5492 5494 5497 5499 5501 5504
5615 5608 5606 5607 5614 5616 5612 5605 5605 5604 5602 5599 5598 5596 5595 5595 5591 5587 5583 5581 5572 5553 5547 5536 5521 5505 5494 5488 5484 5480 5476 5475 5477 5477 5478 5477 5477 5478 5482 5485 5487 5489 5488 5493
5616 5609 5599 5596 5604 5597 5597 5599 5597 5590 5586 5588 5589 5587 5587 5587 5582 5578 5574 5569 5557 5544 5537 5525 5510 5496 5490 5484 5480 5476 5473 5474 5474 5474 5474 5474 5475 5474 5476 5478 5478 5481 5484 5489